Back to catalog

FLOCK 4Q 4

AliveScienceSSO
NORAD 58327·PAYLOAD·🇺🇸 United States

Launched Nov 11, 2023 from Vandenberg Space Force Base

Loading…

Next Passes (next 24 hours)

TLE

FreshSource: CelesTrak SupGP

Epoch: Sep 14, 2026, 12:45 UTC

1 58327C 23174BZ  26257.53138889  .00029842  00000+0  48972-3 0  2573
2 58327  97.3779 347.4454 0004915 185.3310 184.4159 15.52415072    15

Track FLOCK 4Q 4 in real time with AllMySat

Download on the App Store